TimeAKST,TemperatureF,Dew PointF,Humidity,Sea Level PressureIn,VisibilityMPH,Wind Direction,Wind SpeedMPH,Gust SpeedMPH,PrecipitationIn,Events,Conditions,WindDirDegrees,DateUTC
12:37 AM,-0.4,-5.8,78,29.63,-9999.0,East,28.8,-,0.00,Snow,Light Snow,80,2013-01-15 09:37:00
12:56 AM,-0.9,-4.9,83,29.66,-9999.0,East,17.3,31.1,0.00,Snow,Light Snow,90,2013-01-15 09:56:00
1:56 AM,-0.9,-4.9,83,29.71,-9999.0,East,23.0,-,0.00,Snow,Light Snow,90,2013-01-15 10:56:00
2:37 AM,-0.4,-5.8,78,29.72,-9999.0,East,20.7,26.5,0.00,Snow,Light Snow,90,2013-01-15 11:37:00
2:56 AM,-0.4,-5.8,78,29.73,-9999.0,East,20.7,-,N/A,Snow,Light Snow,80,2013-01-15 11:56:00
3:56 AM,0.1,-4.9,79,29.78,-9999.0,Calm,Calm,-,0.00,Snow,Light Snow,0,2013-01-15 12:56:00
4:43 AM,-0.4,-5.8,78,29.78,-9999.0,Calm,Calm,-,0.00,Snow,Light Snow,0,2013-01-15 13:43:00
4:56 AM,-0.9,-6.0,79,29.81,-9999.0,Calm,Calm,-,0.00,Snow,Light Snow,0,2013-01-15 13:56:00
5:04 AM,-0.4,-5.8,78,29.79,-9999.0,Calm,Calm,-,0.00,Snow,Light Snow,0,2013-01-15 14:04:00
5:29 AM,-0.4,-5.8,78,29.81,-9999.0,Calm,Calm,-,0.00,,Overcast,0,2013-01-15 14:29:00
5:56 AM,-2.2,-5.8,85,29.82,-9999.0,Calm,Calm,-,N/A,Snow,Light Snow,0,2013-01-15 14:56:00
6:04 AM,-2.2,-5.8,85,29.82,-9999.0,Calm,Calm,-,0.00,Snow,Light Snow,0,2013-01-15 15:04:00
6:56 AM,-1.8,-6.9,79,29.86,-9999.0,Calm,Calm,-,0.00,Snow,Light Snow,0,2013-01-15 15:56:00
7:21 AM,-2.2,-7.6,78,29.85,-9999.0,Calm,Calm,-,0.00,Snow,Light Snow,0,2013-01-15 16:21:00
7:56 AM,-2.9,-6.9,83,29.89,-9999.0,Calm,Calm,-,0.00,Snow,Light Snow,0,2013-01-15 16:56:00
8:22 AM,-2.2,-7.6,78,29.88,-9999.0,Calm,Calm,-,0.00,Snow,Light Snow,0,2013-01-15 17:22:00
8:27 AM,-2.2,-7.6,78,29.88,-9999.0,Calm,Calm,-,0.00,Snow,Light Snow,0,2013-01-15 17:27:00
8:40 AM,-2.2,-7.6,78,29.89,-9999.0,Calm,Calm,-,0.00,Snow,Light Snow,0,2013-01-15 17:40:00
8:56 AM,-2.2,-7.6,78,29.90,-9999.0,Calm,Calm,-,N/A,Snow,Light Snow,0,2013-01-15 17:56:00
9:56 AM,-4.0,-8.9,80,29.94,-9999.0,Calm,Calm,-,0.00,,Overcast,0,2013-01-15 18:56:00
10:12 AM,-4.0,-9.4,78,29.93,-9999.0,Calm,Calm,-,N/A,,Overcast,0,2013-01-15 19:12:00
10:19 AM,-4.0,-9.4,78,29.94,-9999.0,Calm,Calm,-,N/A,,Overcast,0,2013-01-15 19:19:00
10:56 AM,-4.9,-9.9,79,29.97,-9999.0,Calm,Calm,-,N/A,,Overcast,0,2013-01-15 19:56:00
11:22 AM,-5.8,-9.4,84,29.96,-9999.0,Calm,Calm,-,0.00,Snow,Light Snow,0,2013-01-15 20:22:00
11:56 AM,-4.9,-10.8,76,29.99,-9999.0,Calm,Calm,-,0.00,,Mostly Cloudy,0,2013-01-15 20:56:00
12:56 PM,-6.0,-11.9,75,30.01,-9999.0,Calm,Calm,-,0.00,,Mostly Cloudy,0,2013-01-15 21:56:00
1:56 PM,-6.9,-13.0,75,30.03,-9999.0,Calm,Calm,-,0.00,Snow,Light Snow,0,2013-01-15 22:56:00
2:12 PM,-7.6,-13.0,77,30.02,-9999.0,Calm,Calm,-,0.00,Snow,Light Snow,0,2013-01-15 23:12:00
2:56 PM,-7.6,-13.0,77,30.04,6.0,Calm,Calm,-,N/A,Snow,Light Snow,0,2013-01-15 23:56:00
3:31 PM,-7.6,-13.0,77,30.05,6.0,Calm,Calm,-,0.00,Snow,Light Snow,0,2013-01-16 00:31:00
3:56 PM,-8.0,-13.9,75,30.07,4.0,Calm,Calm,-,0.00,Snow,Light Snow,0,2013-01-16 00:56:00
4:56 PM,-8.9,-13.9,79,30.09,7.0,Calm,Calm,-,0.00,Snow,Light Snow,0,2013-01-16 01:56:00
4:59 PM,-9.4,-14.8,77,30.08,6.0,Calm,Calm,-,0.00,,Haze,0,2013-01-16 01:59:00
5:17 PM,-9.4,-14.8,77,30.08,9.0,Calm,Calm,-,0.00,,Mostly Cloudy,0,2013-01-16 02:17:00
5:26 PM,-9.4,-14.8,77,30.08,9.0,Calm,Calm,-,0.00,,Overcast,0,2013-01-16 02:26:00
5:56 PM,-9.4,-14.8,77,30.09,10.0,Calm,Calm,-,N/A,,Overcast,0,2013-01-16 02:56:00
6:16 PM,-9.4,-14.8,77,30.10,10.0,Calm,Calm,-,N/A,,Mostly Cloudy,0,2013-01-16 03:16:00
6:56 PM,-9.9,-15.0,78,30.12,6.0,Calm,Calm,-,N/A,,Haze,0,2013-01-16 03:56:00
7:56 PM,-9.9,-15.9,75,30.15,6.0,Calm,Calm,-,N/A,,Haze,0,2013-01-16 04:56:00
8:56 PM,-11.9,-17.0,78,30.18,5.0,Calm,Calm,-,N/A,,Haze,0,2013-01-16 05:56:00
9:56 PM,-11.9,-17.9,75,30.21,5.0,Calm,Calm,-,N/A,,Haze,0,2013-01-16 06:56:00
10:56 PM,-11.9,-17.9,75,30.23,6.0,Calm,Calm,-,N/A,,Haze,0,2013-01-16 07:56:00
11:56 PM,-13.9,-19.8,75,30.26,10.0,Calm,Calm,-,N/A,,Clear,0,2013-01-16 08:56:00